This demonstration page uses our WeatherBlox Daily Observations layout. Learn more.

Left ArrowRight Arrow

39.12711, -84.51439

Hourly Observations for September 8, 2021

Temp ( °F °C ) Dew Point ( °F °C ) Humidity (%) Winds ( mph kmh ) Pressure ( in mb ) Visibility ( mi km ) Precip ( " mm )
12:53 am 00:53 Partly Cloudy 69 20.6 59 15 70 70 SW 5 7 29.84 1011 10 16 0.00 0.00
1:53 am 01:53 Partly Cloudy 70 21.1 59 15 68 68 S 14 22 29.80 1009 10 16 0.00 0.00
2:53 am 02:53 Clear 73 22.8 58 14.4 59 59 SW 15 24 29.79 1009 10 16 0.00 0.00
3:53 am 03:53 Partly Cloudy with Light Rain 70 21.1 60 15.6 71 71 NW 12 19 29.80 1009 10 16 0.00 0.00
4:53 am 04:53 Clear 65 18.3 61 16.1 87 87 undefined N/A 29.79 1009 10 16 0.01 0.25
5:53 am 05:53 Mostly Cloudy 68 20 62 16.7 81 81 SW 8 13 29.79 1009 10 16 0.00 0.00
6:53 am 06:53 Cloudy 67 19.4 62 16.7 84 84 SSW 5 7 29.80 1009 10 16 0.00 0.00
7:53 am 07:53 Cloudy 67 19.4 63 17.2 87 87 SSW 5 7 29.80 1009 10 16 0.01 0.25
8:53 am 08:53 Cloudy 67 19.4 63 17.2 87 87 S 5 7 29.82 1010 10 16 0.00 0.00
9:53 am 09:53 Cloudy 72 22.2 63 17.2 73 73 S 7 11 29.81 1010 10 16 0.00 0.00
10:53 am 10:53 Mostly Sunny N/A N/A N/A undefined N/A N/A N/A 0.00 0.00
11:53 am 11:53 Mostly Sunny 73 22.8 63 17.2 71 71 Calm 29.82 1010 N/A 0.00 0.00
12:53 pm 12:53 Partly Cloudy 77 25 65 18.3 66 66 VRB 3 6 29.82 1010 10 16 0.00 0.00
1:53 pm 13:53 Cloudy 76 24.4 62 16.7 62 62 W 3 6 29.82 1010 10 16 0.00 0.00
2:53 pm 14:53 Mostly Sunny 78 25.6 55 12.8 45 45 W 8 13 29.80 1009 10 16 0.00 0.00
3:53 pm 15:53 Partly Cloudy 83 28.3 53 11.7 36 36 NNW 9 15 29.79 1009 10 16 0.00 0.00
4:53 pm 16:53 Partly Cloudy 82 27.8 50 10 33 33 NNW 14 22 29.79 1009 10 16 0.00 0.00
5:53 pm 17:53 Mostly Sunny 81 27.2 51 10.6 35 35 WNW 10 17 29.80 1009 10 16 0.00 0.00
6:53 pm 18:53 Mostly Sunny 78 25.6 48 8.9 35 35 NW 8 13 29.81 1010 10 16 0.00 0.00
7:53 pm 19:53 Mostly Sunny 76 24.4 48 8.9 37 37 NW 6 9 29.82 1010 10 16 0.00 0.00
8:53 pm 20:53 Clear 65 18.3 56 13.3 73 73 Calm 29.84 1010 10 16 0.00 0.00
9:53 pm 21:53 Clear 62 16.7 56 13.3 80 80 Calm 29.85 1011 10 16 0.00 0.00
10:53 pm 22:53 Partly Cloudy 60 15.6 56 13.3 86 86 Calm 29.86 1011 10 16 0.00 0.00
11:53 pm 23:53 Mostly Cloudy 59 15 57 13.9 93 93 Calm 29.86 1011 10 16 0.00 0.00

Powered by AerisWeather